TimeMST,TemperatureF,Dew PointF,Humidity,Sea Level PressureIn,VisibilityMPH,Wind Direction,Wind SpeedMPH,Gust SpeedMPH,PrecipitationIn,Events,Conditions,WindDirDegrees,DateUTC
12:56 AM,19.9,17.1,89,30.21,-9999.0,South,12.7,-,N/A,,Unknown,190,2013-02-01 07:56:00
1:56 AM,19.0,16.0,88,30.20,-9999.0,SSE,6.9,-,N/A,,Unknown,160,2013-02-01 08:56:00
2:56 AM,17.1,14.0,88,30.19,-9999.0,South,8.1,-,N/A,,Unknown,190,2013-02-01 09:56:00
3:56 AM,18.0,15.1,88,30.16,-9999.0,SW,11.5,-,N/A,,Unknown,220,2013-02-01 10:56:00
4:56 AM,21.0,17.1,85,30.15,-9999.0,WSW,13.8,21.9,N/A,,Unknown,240,2013-02-01 11:56:00
5:56 AM,21.0,18.0,88,30.16,-9999.0,SW,12.7,-,N/A,,Unknown,230,2013-02-01 12:56:00
6:56 AM,21.0,17.1,85,30.16,-9999.0,WSW,13.8,-,N/A,,Unknown,240,2013-02-01 13:56:00
7:56 AM,23.0,19.0,85,30.14,-9999.0,WSW,8.1,-,N/A,,Unknown,240,2013-02-01 14:56:00
8:56 AM,32.0,25.0,75,30.12,-9999.0,SW,4.6,-,N/A,,Unknown,230,2013-02-01 15:56:00
9:56 AM,46.9,25.0,42,30.06,-9999.0,North,5.8,-,N/A,,Unknown,350,2013-02-01 16:56:00
10:56 AM,54.0,16.0,22,30.04,-9999.0,NNW,16.1,26.5,N/A,,Unknown,340,2013-02-01 17:56:00
11:56 AM,55.0,16.0,22,30.01,-9999.0,NNW,21.9,32.2,N/A,,Unknown,330,2013-02-01 18:56:00
12:56 PM,55.9,16.0,21,30.00,-9999.0,NNW,19.6,27.6,N/A,,Unknown,340,2013-02-01 19:56:00
1:56 PM,57.0,15.1,19,29.98,-9999.0,NNW,17.3,25.3,N/A,,Unknown,340,2013-02-01 20:56:00
2:56 PM,57.0,12.9,18,29.98,-9999.0,North,16.1,24.2,N/A,,Unknown,350,2013-02-01 21:56:00
3:56 PM,55.9,15.1,20,29.99,-9999.0,NNE,9.2,-,N/A,,Unknown,20,2013-02-01 22:56:00
4:56 PM,48.0,18.0,30,30.02,-9999.0,ENE,9.2,-,N/A,,Unknown,60,2013-02-01 23:56:00
5:56 PM,41.0,18.0,40,30.08,-9999.0,SE,5.8,-,N/A,,Unknown,140,2013-02-02 00:56:00
6:56 PM,37.9,21.0,51,30.12,-9999.0,SW,3.5,-,N/A,,Unknown,230,2013-02-02 01:56:00
7:56 PM,34.0,19.9,56,30.17,-9999.0,NW,6.9,-,N/A,,Unknown,320,2013-02-02 02:56:00
8:56 PM,30.0,17.1,59,30.17,-9999.0,NNW,9.2,-,N/A,,Unknown,330,2013-02-02 03:56:00
9:56 PM,28.9,18.0,64,30.14,-9999.0,NW,10.4,-,N/A,,Unknown,320,2013-02-02 04:56:00
10:56 PM,32.0,19.9,61,30.14,-9999.0,NNW,11.5,-,N/A,,Unknown,340,2013-02-02 05:56:00
11:56 PM,30.9,23.0,72,30.17,-9999.0,North,16.1,-,N/A,,Unknown,10,2013-02-02 06:56:00